Flag for United Kingdom Weather past 2 weeks in Dudley, England, United Kingdom

Now
61 °F

Mostly cloudy.


Feels Like: 61 °F
Forecast: 54 / 62 °F
Wind: 9 mph from Southwest

Location: Birmingham / Airport

Current Time: Jul 7, 2015 at 4:37:38 AM

Latest Report: Jul 7, 2015 at 3:50 AM


Visibility: N/A

Pressure: 29.80 "Hg

Humidity: 77%

Dew point: 54 °F

Location of DudleyLocation

Historic Weather in Dudley — Graph

°F

Dudley temperature yesterday

Maximum temperature yesterday: 66 °F (at 4:20 PM)
Minimum temperature yesterday: 50 °F (at 2:50 AM)
Average temperature yesterday: 60 °F

Past Weeks' High & Low Weather Summary

 TemperatureHumidityPressure
High90 °F (Jul 1, 3:50 PM)100% (Jun 28, 4:20 AM)30.30 "Hg (Jun 28, 4:20 AM)
Low48 °F (Jul 3, 4:20 AM)35% (Jun 30, 2:50 PM)29.80 "Hg (Jun 22, 9:50 AM)
Average64 °F69%30.04 "Hg
* Reported Jun 22 3:20 AM — Jul 7 3:20 AM, Dudley, Weather by CustomWeather, © 2015

Note: Actual official high and low records may vary slightly from our data, if they occured in-between our weather recording intervals... More about our weather records

Advertising

Dudley weather history for previous 24 hours

 ConditionsComfort  
Time TempWeatherWind HumidityBarometerVisibility
3:20 AM
Tue, Jul 7
61 °FOvercast.9 mph77%29.80 "HgN/A
2:50 AM61 °FOvercast.7 mph77%29.83 "HgN/A
2:20 AM61 °FPassing clouds.8 mph77%29.83 "HgN/A
1:50 AM61 °FPassing clouds.8 mph77%29.86 "HgN/A
1:20 AM61 °FPassing clouds.10 mph77%29.86 "HgN/A
12:50 AM63 °FPassing clouds.10 mph68%29.86 "HgN/A
12:20 AM63 °FPassing clouds.8 mph68%29.86 "HgN/A
11:50 PM
Mon, Jul 6
63 °FClear.10 mph68%29.86 "Hg10 mi
11:20 PM63 °FClear.8 mph68%29.89 "Hg10 mi
10:50 PM63 °FClear.10 mph68%29.89 "Hg10 mi
10:20 PM63 °FLight rain. Clear.8 mph73%29.89 "HgN/A
9:50 PM64 °FLight rain. Scattered clouds.9 mph68%29.89 "HgN/A
9:20 PM64 °FSunny.9 mph64%29.92 "Hg10 mi
8:50 PM64 °FMild.7 mph68%29.92 "HgN/A
8:20 PM64 °FPassing clouds.10 mph68%29.92 "HgN/A
7:50 PM66 °FScattered clouds.13 mph60%29.95 "HgN/A
7:20 PM66 °FPassing clouds.13 mph60%29.95 "HgN/A
6:50 PM66 °FScattered clouds.9 mph64%29.95 "HgN/A
6:20 PM66 °FScattered clouds.10 mph64%29.95 "HgN/A
5:50 PM66 °FScattered clouds.9 mph68%29.95 "HgN/A
5:20 PM66 °FScattered clouds.9 mph64%29.98 "HgN/A
4:50 PM64 °FPartly sunny.12 mph68%29.98 "HgN/A
4:20 PM66 °FScattered clouds.12 mph64%30.01 "HgN/A
3:50 PM64 °FBroken clouds.13 mph64%30.01 "HgN/A
3:20 PM64 °FMore clouds than sun.12 mph60%30.01 "HgN/A
2:50 PM64 °FOvercast.8 mph64%30.01 "HgN/A
2:20 PM63 °FScattered clouds.9 mph77%30.04 "HgN/A
1:50 PM63 °FScattered clouds.9 mph77%30.04 "HgN/A
1:20 PM61 °FScattered showers. Partly sunny.6 mph83%30.04 "HgN/A
12:50 PM59 °FLight rain. Partly sunny.6 mph88%30.07 "HgN/A
12:20 PM59 °FScattered showers. Partly sunny.8 mph82%30.07 "HgN/A
11:50 AM61 °FLight rain. Partly sunny.6 mph77%30.07 "Hg6 mi
11:20 AM63 °FScattered showers. Partly sunny.10 mph64%30.07 "HgN/A
10:50 AM63 °FSprinkles. Partly sunny.10 mph64%30.07 "HgN/A
10:20 AM63 °FBroken clouds.13 mph68%30.07 "HgN/A
9:50 AM63 °FScattered clouds.8 mph68%30.07 "HgN/A
9:20 AM63 °FScattered clouds.8 mph73%30.07 "HgN/A
8:50 AM61 °FScattered clouds.9 mph72%30.07 "HgN/A
8:20 AM59 °FScattered clouds.7 mph82%30.07 "HgN/A
7:50 AM57 °FPassing clouds.6 mph88%30.07 "HgN/A
7:20 AM55 °FPassing clouds.8 mph94%30.07 "HgN/A
6:50 AM55 °FSunny.7 mph88%30.07 "Hg10 mi
6:20 AM52 °FSunny.3 mph94%30.07 "Hg10 mi
5:50 AM52 °FClear.No wind94%30.07 "Hg10 mi
5:20 AM52 °FClear.6 mph94%30.07 "Hg10 mi
4:20 AM50 °FClear.6 mph100%30.07 "Hg10 mi
Weather by CustomWeather, © 2015

See weather overviewHow to use our weather pages